Left ArrowRight Arrow

44.89941, -97.11507

Hourly Observations for June 18, 2024

Temp ( °F °C ) Dew Point ( °F °C ) Humidity (%) Winds ( mph kmh ) Pressure ( in mb ) Visibility ( mi km ) Precip ( " mm )
12:53 am 00:53 Clear 72 22.2 68 20 87 87 SSE 22 35 29.42 996 10 16 0.00 0.00
1:53 am 01:53 Clear 74 23.3 69 20.6 85 85 SSE 25 41 29.37 995 10 16 0.00 0.00
2:53 am 02:53 Clear 75 23.9 69 20.6 82 82 SSE 21 33 29.41 996 10 16 0.00 0.00
3:53 am 03:53 Clear 75 23.9 68 20 79 79 S 20 31 29.41 996 10 16 0.00 0.00
4:53 am 04:53 Mostly Cloudy 75 23.9 68 20 79 79 S 14 22 29.46 998 10 16 0.00 0.00
5:53 am 05:53 Cloudy 74 23.3 68 20 82 82 S 12 19 29.47 998 10 16 0.00 0.00
6:53 am 06:53 Mostly Cloudy 73 22.8 68 20 84 84 SSE 9 15 29.46 998 10 16 0.00 0.00
7:53 am 07:53 Mostly Cloudy 74 23.3 69 20.6 85 85 SSE 12 19 29.47 998 10 16 0.00 0.00
8:50 am 08:50 Cloudy 68 20 64 18 88 88 E 8 13 29.46 997 10 16 0.00 0.00
8:53 am 08:53 Cloudy 68 20 65 18.3 90 90 E 9 15 29.49 999 10 16 0.00 0.00
9:22 am 09:22 Cloudy 69 20.6 65 18.3 87 87 E 10 17 29.44 997 10 16 0.00 0.00
9:53 am 09:53 Cloudy 71 21.7 66 18.9 84 84 VRB 5 7 29.47 998 10 16 0.00 0.00
10:06 am 10:06 Cloudy 72 22.2 67 19.4 84 84 E 7 11 29.42 996 10 16 0.00 0.00
10:53 am 10:53 Cloudy 78 25.6 70 21.1 76 76 S 16 26 29.45 997 10 16 0.00 0.00
12:00 pm 12:00 Cloudy 81 27.2 72 22.2 74 74 SSW 15 24 29.41 996 10 16 0.00 0.00
12:29 pm 12:29 Cloudy with Light Rain 79 26.1 72 22.2 79 79 SSW 17 28 29.43 997 10 16 0.01 0.13
12:53 pm 12:53 Cloudy with Light Rain 78 25.6 71 21.7 79 79 WSW 14 22 29.49 999 10 16 0.01 0.13
1:06 pm 13:06 Cloudy with Light Rain 77 25 71 21.7 82 82 WSW 12 19 29.45 997 10 16 0.01 0.13
1:53 pm 13:53 Cloudy with Light Rain 75 23.9 70 21.1 84 84 WNW 14 22 29.52 1000 10 16 0.03 0.76
2:35 pm 14:35 Mostly Cloudy 72 22.2 67 19.4 84 84 NNW 18 30 29.53 1000 10 16 0.01 0.13
2:53 pm 14:53 Cloudy 70 21.1 63 17.2 78 78 NW 17 28 29.58 1002 10 16 0.01 0.13
3:06 pm 15:06 Cloudy 67 19.4 64 17.8 90 90 WNW 18 30 29.57 1001 10 16 0.00 0.00
3:18 pm 15:18 Cloudy 66 18.9 63 17.2 90 90 WNW 17 28 29.59 1002 10 16 0.00 0.00
3:45 pm 15:45 Cloudy with Light Rain 63 17.2 62 16.7 97 97 NW 16 26 29.61 1003 2 3 0.01 0.25
3:53 pm 15:53 Cloudy with Light Rain 62 16.7 61 16.1 96 96 NW 18 30 29.62 1003 3 4 0.01 0.25
4:00 pm 16:00 Cloudy with Nearby Thunderstorms 62 16.7 60 15.6 93 93 NW 20 31 29.62 1003 3 5 0.01 0.25
4:23 pm 16:23 Cloudy with Strong Thunderstorms 61 16.1 60 15.6 97 97 W 12 19 29.66 1004 3 4 0.11 2.79
4:25 pm 16:25 Cloudy with Strong Thunderstorms 61 16.1 60 15.6 97 97 WNW 13 20 29.65 1004 1 2 0.16 4.06
4:34 pm 16:34 Cloudy with Thunderstorms 62 16.7 60 15.6 93 93 WNW 16 26 29.65 1004 2 3 0.18 4.57
4:41 pm 16:41 Cloudy with Thunderstorms 62 16.7 61 16.1 96 96 WNW 18 30 29.66 1004 9 14 0.19 4.83
4:47 pm 16:47 Cloudy with Nearby Thunderstorms 63 17 61 16 94 94 WNW 18 30 29.66 1005 10 16 0.19 4.83
4:53 pm 16:53 Cloudy 62 16.7 59 15 90 90 NW 18 30 29.68 1005 10 16 0.19 4.83
5:57 pm 17:57 Cloudy with Nearby Thunderstorms 61 16.1 59 15 93 93 NW 17 28 29.72 1006 8 13 0.01 0.13
6:25 pm 18:25 Cloudy 61 16.1 58 14.4 90 90 NW 17 28 29.73 1007 10 16 0.01 0.13
6:53 pm 18:53 Cloudy 61 16.1 57 13.9 87 87 NW 21 33 29.75 1008 10 16 0.01 0.13
7:29 pm 19:29 Cloudy 61 16.1 56 13.3 83 83 WNW 16 26 29.79 1009 10 16 0.00 0.00
7:53 pm 19:53 Cloudy 60 15.6 55 12.8 83 83 NW 17 28 29.82 1010 10 16 0.00 0.00
8:53 pm 20:53 Cloudy 59 15 54 12.2 83 83 NW 15 24 29.86 1011 10 16 0.00 0.00
9:53 pm 21:53 Mostly Clear 58 14.4 53 11.7 84 84 NW 14 22 29.89 1012 10 16 0.00 0.00
10:25 pm 22:25 Mostly Cloudy 58 14.4 53 11.7 84 84 NW 9 15 29.92 1013 10 16 0.00 0.00
10:53 pm 22:53 Mostly Cloudy 57 13.9 53 11.7 87 87 NW 8 13 29.94 1014 10 16 0.00 0.00
11:01 pm 23:01 Partly Cloudy 57 13.9 53 11.7 87 87 NW 6 9 29.95 1014 10 16 0.00 0.00
11:53 pm 23:53 Clear 56 13.3 52 11.1 87 87 NW 7 11 29.96 1015 10 16 0.00 0.00

Powered by Vaisala Xweather